| time (UTC) | temp F | wind direction | speed knots | gust knots | rain 1hr in | rain 24hr in | rain mn in | humidity % | barometer mb |
| 20260504050403 | 94 | 164 | 1.7 | 2.6 | 0.00 | 0.00 | 0.00 | 55 | 1010.6 |
| 20260504045900 | 95 | 164 | 1.7 | 1.7 | 0.00 | 0.00 | 0.00 | 52 | 1010.4 |
| 20260504045355 | 94 | 160 | 0.9 | 1.7 | 0.00 | 0.00 | 0.00 | 56 | 1010.7 |
| 20260504044853 | 93 | 127 | 1.7 | 2.6 | 0.00 | 0.00 | 0.00 | 56 | 1010.5 |
| 20260504044350 | 93 | 263 | 0.0 | 2.6 | 0.00 | 0.00 | 0.00 | 57 | 1010.3 |
| 20260504043847 | 93 | 159 | 0.0 | 2.6 | 0.00 | 0.00 | 0.00 | 57 | 1010.5 |
| 20260504043344 | 94 | 222 | 0.0 | 0.9 | 0.00 | 0.00 | 0.00 | 57 | 1010.4 |
| 20260504042841 | 92 | 156 | 0.0 | 1.7 | 0.00 | 0.00 | 0.00 | 58 | 1010.4 |
| 20260504042338 | 92 | 184 | 3.5 | 3.5 | 0.00 | 0.00 | 0.00 | 57 | 1010.3 |
| 20260504041834 | 92 | 299 | 1.7 | 2.6 | 0.00 | 0.00 | 0.00 | 58 | 1010.4 |
| 20260504041330 | 91 | 165 | 1.7 | 5.2 | 0.00 | 0.00 | 0.00 | 60 | 1010.5 |
| 20260504040826 | 92 | 182 | 2.6 | 3.5 | 0.00 | 0.00 | 0.00 | 58 | 1010.5 |
| 20260504040324 | 91 | 178 | 0.9 | 1.7 | 0.00 | 0.00 | 0.00 | 59 | 1010.5 |
| 20260504035820 | 89 | 227 | 1.7 | 1.7 | 0.00 | 0.00 | 0.00 | 61 | 1010.5 |
| 20260504035318 | 90 | 179 | 3.5 | 5.2 | 0.00 | 0.00 | 0.00 | 62 | 1010.2 |
| 20260504034815 | 90 | 178 | 0.9 | 2.6 | 0.00 | 0.00 | 0.00 | 63 | 1010.5 |
| 20260504034312 | 91 | 204 | 0.9 | 1.7 | 0.00 | 0.00 | 0.00 | 61 | 1010.3 |
| 20260504033809 | 90 | 174 | 1.7 | 1.7 | 0.00 | 0.00 | 0.00 | 61 | 1010.4 |
| 20260504033307 | 89 | 147 | 1.7 | 3.5 | 0.00 | 0.00 | 0.00 | 63 | 1010.2 |
| 20260504032803 | 89 | 148 | 1.7 | 2.6 | 0.00 | 0.00 | 0.00 | 64 | 1010.4 |
| 20260504032300 | 90 | 171 | 0.9 | 1.7 | 0.00 | 0.00 | 0.00 | 63 | 1010.0 |
| 20260504031757 | 89 | 158 | 1.7 | 2.6 | 0.00 | 0.00 | 0.00 | 65 | 1010.0 |
| 20260504031255 | 89 | 160 | 0.9 | 3.5 | 0.00 | 0.00 | 0.00 | 64 | 1010.0 |
| 20260504030750 | 89 | 158 | 1.7 | 1.7 | 0.00 | 0.00 | 0.00 | 63 | 1010.1 |
| 20260504030248 | 88 | 168 | 0.0 | 2.6 | 0.00 | 0.00 | 0.00 | 65 | 1009.9 |
| 20260504025744 | 88 | 158 | 1.7 | 1.7 | 0.00 | 0.00 | 0.00 | 65 | 1010.0 |
| 20260504025241 | 88 | 168 | 0.0 | 3.5 | 0.00 | 0.00 | 0.00 | 66 | 1009.7 |
| 20260504024738 | 89 | 251 | 0.0 | 3.5 | 0.00 | 0.00 | 0.00 | 67 | 1009.9 |
| 20260504024234 | 88 | 85 | 0.0 | 0.9 | 0.00 | 0.00 | 0.00 | 67 | 1009.9 |
| 20260504023731 | 87 | 146 | 0.0 | 1.7 | 0.00 | 0.00 | 0.00 | 68 | 1009.7 |
| 20260504023227 | 87 | 171 | 0.0 | 1.7 | 0.00 | 0.00 | 0.00 | 69 | 1009.7 |
| 20260504022724 | 87 | 145 | 0.9 | 1.7 | 0.00 | 0.00 | 0.00 | 71 | 1009.6 |
| 20260504022220 | 87 | 184 | 0.0 | 2.6 | 0.00 | 0.00 | 0.00 | 71 | 1009.4 |
| 20260504021717 | 86 | 196 | 0.0 | 0.9 | 0.00 | 0.00 | 0.00 | 73 | 1009.4 |
| 20260504021215 | 86 | 167 | 0.9 | 1.7 | 0.00 | 0.00 | 0.00 | 74 | 1009.5 |
| 20260504020711 | 86 | 185 | 0.9 | 1.7 | 0.00 | 0.00 | 0.00 | 74 | 1009.4 |
| 20260504020207 | 85 | 198 | 0.9 | 2.6 | 0.00 | 0.00 | 0.00 | 74 | 1009.2 |
| 20260504015704 | 85 | 189 | 0.9 | 0.9 | 0.00 | 0.00 | 0.00 | 75 | 1009.2 |
| 20260504015200 | 85 | 175 | 0.0 | 1.7 | 0.00 | 0.00 | 0.00 | 76 | 1009.2 |
| 20260504014656 | 84 | 181 | 0.9 | 1.7 | 0.00 | 0.00 | 0.00 | 78 | 1009.4 |
| 20260504014153 | 83 | 172 | 0.9 | 1.7 | 0.00 | 0.00 | 0.00 | 78 | 1009.1 |
| 20260504013651 | 84 | 173 | 0.9 | 3.5 | 0.00 | 0.00 | 0.00 | 78 | 1009.0 |
| 20260504013148 | 84 | 191 | 0.9 | 1.7 | 0.00 | 0.00 | 0.00 | 77 | 1008.7 |
| 20260504012645 | 83 | 117 | 0.9 | 1.7 | 0.00 | 0.00 | 0.00 | 79 | 1008.6 |
| 20260504012143 | 83 | 216 | 1.7 | 2.6 | 0.00 | 0.00 | 0.00 | 80 | 1008.5 |
| 20260504011639 | 83 | 146 | 0.9 | 1.7 | 0.00 | 0.00 | 0.00 | 80 | 1008.3 |
| 20260504011136 | 82 | 174 | 0.9 | 1.7 | 0.00 | 0.00 | 0.00 | 81 | 1007.9 |
| 20260504010632 | 82 | 186 | 1.7 | 2.6 | 0.00 | 0.00 | 0.00 | 81 | 1007.9 |
| 20260504010128 | 82 | 169 | 0.0 | 1.7 | 0.00 | 0.00 | 0.00 | 82 | 1007.9 |
| 20260504005625 | 81 | 148 | 0.9 | 2.6 | 0.00 | 0.00 | 0.00 | 83 | 1008.1 |
| 20260504005122 | 81 | 120 | 0.0 | 3.5 | 0.00 | 0.00 | 0.00 | 83 | 1008.0 |
| 20260504004620 | 80 | 173 | 0.0 | 3.5 | 0.00 | 0.00 | 0.00 | 84 | 1007.8 |
| 20260504004117 | 80 | 111 | 1.7 | 2.6 | 0.00 | 0.00 | 0.00 | 84 | 1007.8 |
| 20260504003613 | 80 | 146 | 0.0 | 2.6 | 0.00 | 0.00 | 0.00 | 85 | 1007.9 |
| 20260504003109 | 80 | 141 | 1.7 | 3.5 | 0.00 | 0.00 | 0.00 | 85 | 1007.5 |
| 20260504002606 | 80 | 191 | 1.7 | 2.6 | 0.00 | 0.00 | 0.00 | 85 | 1007.7 |
| 20260504002104 | 80 | 173 | 0.9 | 3.5 | 0.00 | 0.00 | 0.00 | 86 | 1007.5 |
| 20260504001602 | 79 | 124 | 0.9 | 2.6 | 0.00 | 0.00 | 0.00 | 86 | 1007.4 |
| 20260504001057 | 79 | 150 | 0.0 | 1.7 | 0.00 | 0.00 | 0.00 | 87 | 1007.5 |
| 20260504000555 | 79 | 162 | 1.7 | 1.7 | 0.00 | 0.00 | 0.00 | 87 | 1007.3 |
| 20260504000052 | 79 | 213 | 0.0 | 1.7 | 0.00 | 0.00 | 0.00 | 87 | 1007.3 |
| 20260503235550 | 79 | 182 | 1.7 | 5.2 | 0.00 | 0.00 | 0.00 | 87 | 1007.3 |
| 20260503235047 | 79 | 182 | 0.0 | 0.9 | 0.00 | 0.00 | 0.00 | 88 | 1007.3 |
| 20260503234544 | 79 | 159 | 0.9 | 2.6 | 0.00 | 0.00 | 0.00 | 88 | 1007.0 |
| 20260503234043 | 79 | 155 | 1.7 | 1.7 | 0.00 | 0.00 | 0.00 | 87 | 1007.2 |
| 20260503233539 | 79 | 168 | 1.7 | 1.7 | 0.00 | 0.00 | 0.00 | 87 | 1007.1 |
| 20260503233035 | 79 | 173 | 0.0 | 0.9 | 0.00 | 0.00 | 0.00 | 87 | 1007.2 |
| 20260503232532 | 79 | 170 | 0.0 | 0.9 | 0.00 | 0.00 | 0.00 | 87 | 1007.1 |
| 20260503232029 | 79 | 164 | 0.9 | 0.9 | 0.00 | 0.00 | 0.00 | 87 | 1006.9 |
| 20260503231527 | 79 | 173 | 1.7 | 2.6 | 0.00 | 0.00 | 0.00 | 86 | 1007.1 |
| 20260503231024 | 79 | 159 | 0.0 | 0.9 | 0.00 | 0.00 | 0.00 | 86 | 1007.2 |
| 20260503230520 | 79 | 156 | 0.0 | 0.9 | 0.00 | 0.00 | 0.00 | 86 | 1007.0 |
| 20260503230018 | 79 | 159 | 0.9 | 0.9 | 0.00 | 0.00 | 0.00 | 86 | 1007.2 |
| 20260503225515 | 79 | 155 | 0.0 | 0.9 | 0.00 | 0.00 | 0.00 | 86 | 1007.2 |
| 20260503225010 | 80 | 155 | 0.9 | 1.7 | 0.00 | 0.00 | 0.00 | 86 | 1007.2 |
| 20260503224507 | 80 | 169 | 0.9 | 2.6 | 0.00 | 0.00 | 0.00 | 86 | 1007.4 |
| 20260503224005 | 80 | 155 | 0.9 | 0.9 | 0.00 | 0.00 | 0.00 | 85 | 1007.3 |
| 20260503223503 | 80 | 162 | 0.0 | 0.9 | 0.00 | 0.00 | 0.00 | 85 | 1007.3 |
| 20260503222958 | 80 | 162 | 0.0 | 0.9 | 0.00 | 0.00 | 0.00 | 85 | 1007.5 |
| 20260503222457 | 80 | 164 | 0.9 | 0.9 | 0.00 | 0.00 | 0.00 | 85 | 1007.6 |
| 20260503221954 | 80 | 157 | 0.0 | 0.9 | 0.00 | 0.00 | 0.00 | 85 | 1007.3 |
| 20260503221452 | 80 | 157 | 0.0 | 0.9 | 0.00 | 0.00 | 0.00 | 85 | 1007.4 |
| 20260503220949 | 80 | 151 | 0.9 | 0.9 | 0.00 | 0.00 | 0.00 | 85 | 1007.4 |
| 20260503220445 | 80 | 150 | 0.0 | 1.7 | 0.00 | 0.00 | 0.00 | 84 | 1007.4 |
| 20260503215942 | 80 | 157 | 0.0 | 0.9 | 0.00 | 0.00 | 0.00 | 84 | 1007.7 |
| 20260503215439 | 80 | 158 | 0.0 | 0.9 | 0.00 | 0.00 | 0.00 | 84 | 1007.5 |
| 20260503214937 | 80 | 161 | 0.0 | 0.9 | 0.00 | 0.00 | 0.00 | 84 | 1007.5 |
| 20260503214435 | 80 | 147 | 0.0 | 0.9 | 0.00 | 0.00 | 0.00 | 85 | 1007.5 |
| 20260503213931 | 80 | 126 | 0.9 | 2.6 | 0.00 | 0.00 | 0.00 | 85 | 1007.3 |
| 20260503213430 | 80 | 171 | 0.9 | 1.7 | 0.00 | 0.00 | 0.00 | 84 | 1007.4 |
| 20260503212926 | 80 | 137 | 0.0 | 0.9 | 0.00 | 0.00 | 0.00 | 84 | 1007.6 |
| 20260503212423 | 80 | 129 | 0.0 | 0.9 | 0.00 | 0.00 | 0.00 | 84 | 1007.2 |
| 20260503211921 | 80 | 175 | 0.9 | 1.7 | 0.00 | 0.00 | 0.00 | 84 | 1007.4 |
| 20260503211417 | 81 | 176 | 0.0 | 0.0 | 0.00 | 0.00 | 0.00 | 83 | 1007.4 |
| 20260503210913 | 81 | 176 | 0.0 | 0.9 | 0.00 | 0.00 | 0.00 | 83 | 1007.5 |
| 20260503210410 | 81 | 176 | 0.9 | 1.7 | 0.00 | 0.00 | 0.00 | 83 | 1007.3 |
| 20260503205910 | 81 | 165 | 0.9 | 0.9 | 0.00 | 0.00 | 0.00 | 83 | 1007.3 |
| 20260503205408 | 81 | 158 | 0.0 | 1.7 | 0.00 | 0.00 | 0.00 | 83 | 1007.5 |
| 20260503204904 | 81 | 171 | 0.9 | 2.6 | 0.00 | 0.00 | 0.00 | 82 | 1007.6 |
| 20260503204401 | 81 | 162 | 0.9 | 0.9 | 0.00 | 0.00 | 0.00 | 82 | 1007.6 |
| 20260503203858 | 81 | 153 | 1.7 | 1.7 | 0.00 | 0.00 | 0.00 | 82 | 1007.6 |
| 20260503203355 | 81 | 163 | 0.0 | 0.0 | 0.00 | 0.00 | 0.00 | 82 | 1007.8 |
| 20260503202852 | 81 | 163 | 0.0 | 0.9 | 0.00 | 0.00 | 0.00 | 83 | 1007.4 |
| 20260503202350 | 81 | 141 | 0.0 | 1.7 | 0.00 | 0.00 | 0.00 | 82 | 1007.6 |
| 20260503201849 | 81 | 150 | 0.0 | 1.7 | 0.00 | 0.00 | 0.00 | 82 | 1007.6 |
| 20260503201345 | 81 | 165 | 0.0 | 0.9 | 0.00 | 0.00 | 0.00 | 82 | 1007.6 |
| 20260503200843 | 81 | 164 | 0.0 | 0.9 | 0.00 | 0.00 | 0.00 | 82 | 1007.5 |
| 20260503200338 | 82 | 167 | 0.0 | 0.9 | 0.00 | 0.00 | 0.00 | 81 | 1007.7 |
| 20260503195836 | 81 | 167 | 0.0 | 0.9 | 0.00 | 0.00 | 0.00 | 81 | 1007.9 |
| 20260503195332 | 81 | 167 | 0.0 | 0.9 | 0.00 | 0.00 | 0.00 | 81 | 1007.7 |
| 20260503194830 | 81 | 155 | 0.9 | 2.6 | 0.00 | 0.00 | 0.00 | 81 | 1007.7 |
| 20260503194325 | 81 | 172 | 0.0 | 0.9 | 0.00 | 0.00 | 0.00 | 81 | 1007.6 |
| 20260503193822 | 81 | 159 | 0.9 | 1.7 | 0.00 | 0.00 | 0.00 | 81 | 1007.6 |
| 20260503193318 | 81 | 145 | 1.7 | 2.6 | 0.00 | 0.00 | 0.00 | 81 | 1007.7 |
| 20260503192814 | 81 | 175 | 1.7 | 1.7 | 0.00 | 0.00 | 0.00 | 81 | 1007.7 |
| 20260503192309 | 81 | 151 | 0.9 | 0.9 | 0.00 | 0.00 | 0.00 | 81 | 1007.9 |
| 20260503191806 | 81 | 130 | 0.0 | 0.9 | 0.00 | 0.00 | 0.00 | 81 | 1007.9 |
| 20260503191303 | 81 | 178 | 0.0 | 0.9 | 0.00 | 0.00 | 0.00 | 81 | 1007.9 |
| 20260503190800 | 81 | 171 | 0.9 | 2.6 | 0.00 | 0.00 | 0.00 | 81 | 1007.8 |
| 20260503190257 | 81 | 154 | 0.9 | 0.9 | 0.00 | 0.00 | 0.00 | 81 | 1007.7 |
| 20260503185754 | 81 | 125 | 0.9 | 0.9 | 0.00 | 0.00 | 0.00 | 81 | 1007.7 |
| 20260503185249 | 81 | 154 | 0.0 | 1.7 | 0.00 | 0.00 | 0.00 | 81 | 1007.8 |
| 20260503184744 | 81 | 170 | 0.9 | 1.7 | 0.00 | 0.00 | 0.00 | 80 | 1008.0 |
| 20260503184241 | 82 | 157 | 1.7 | 2.6 | 0.00 | 0.00 | 0.00 | 80 | 1008.2 |
| 20260503183737 | 82 | 132 | 0.9 | 1.7 | 0.00 | 0.00 | 0.00 | 80 | 1007.9 |
| 20260503183235 | 82 | 168 | 0.0 | 1.7 | 0.00 | 0.00 | 0.00 | 81 | 1008.0 |
| 20260503182732 | 82 | 164 | 0.9 | 1.7 | 0.00 | 0.00 | 0.00 | 80 | 1008.0 |
| 20260503182231 | 82 | 147 | 0.9 | 1.7 | 0.00 | 0.00 | 0.00 | 80 | 1008.0 |
| 20260503181727 | 82 | 104 | 0.0 | 0.9 | 0.00 | 0.00 | 0.00 | 80 | 1007.8 |
| 20260503181224 | 82 | 135 | 0.0 | 1.7 | 0.00 | 0.00 | 0.00 | 79 | 1008.1 |
| 20260503180720 | 82 | 125 | 0.9 | 1.7 | 0.00 | 0.00 | 0.00 | 78 | 1007.9 |
| 20260503180219 | 82 | 167 | 0.9 | 0.9 | 0.00 | 0.00 | 0.00 | 78 | 1007.9 |
| 20260503175715 | 82 | 169 | 0.0 | 1.7 | 0.00 | 0.00 | 0.00 | 78 | 1007.8 |
| 20260503175214 | 83 | 160 | 1.7 | 2.6 | 0.00 | 0.00 | 0.00 | 78 | 1007.8 |
| 20260503174709 | 83 | 167 | 1.7 | 1.7 | 0.00 | 0.00 | 0.00 | 78 | 1007.8 |
| 20260503174207 | 83 | 165 | 0.0 | 2.6 | 0.00 | 0.00 | 0.00 | 78 | 1007.7 |
| 20260503173702 | 83 | 160 | 0.9 | 1.7 | 0.00 | 0.00 | 0.00 | 78 | 1008.0 |
| 20260503173158 | 83 | 173 | 0.9 | 1.7 | 0.00 | 0.00 | 0.00 | 78 | 1007.7 |
| 20260503172655 | 83 | 182 | 0.9 | 1.7 | 0.00 | 0.00 | 0.00 | 78 | 1007.7 |
| 20260503172152 | 83 | 185 | 2.6 | 3.5 | 0.00 | 0.00 | 0.00 | 78 | 1007.4 |
| 20260503171648 | 83 | 167 | 1.7 | 1.7 | 0.00 | 0.00 | 0.00 | 78 | 1007.7 |
| 20260503171146 | 83 | 185 | 2.6 | 2.6 | 0.00 | 0.00 | 0.00 | 79 | 1007.5 |
| 20260503170643 | 83 | 178 | 0.9 | 3.5 | 0.00 | 0.00 | 0.00 | 78 | 1007.6 |
| 20260503170140 | 83 | 137 | 0.0 | 0.9 | 0.00 | 0.00 | 0.00 | 79 | 1007.3 |
| 20260503150531 | 86 | 169 | 0.9 | 1.7 | 0.00 | 0.00 | 0.00 | 74 | 1006.7 |
| 20260503130926 | 89 | 237 | 0.0 | 0.0 | 0.00 | 0.00 | 0.00 | 68 | 1005.1 |
| 20260503130424 | 89 | 237 | 0.0 | 0.0 | 0.00 | 0.00 | 0.00 | 68 | 1005.2 |
| 20260503110326 | 95 | 213 | 0.0 | 0.9 | 0.00 | 0.00 | 0.00 | 60 | 1003.5 |
| 20260503100252 | 95 | 248 | 0.9 | 1.7 | 0.00 | 0.00 | 0.00 | 59 | 1003.7 |
| 20260503090212 | 94 | 265 | 0.0 | 0.9 | 0.00 | 0.00 | 0.00 | 60 | 1004.6 |
| 20260503081144 | 94 | 214 | 0.9 | 1.7 | 0.00 | 0.00 | 0.00 | 57 | 1005.5 |
| 20260503080640 | 94 | 309 | 0.0 | 2.6 | 0.00 | 0.00 | 0.00 | 58 | 1005.6 |
| 20260503080137 | 93 | 204 | 1.7 | 3.5 | 0.00 | 0.00 | 0.00 | 57 | 1005.6 |
| 20260503072614 | 93 | 171 | 0.9 | 1.7 | 0.00 | 0.00 | 0.00 | 54 | 1006.0 |
| 20260503072111 | 93 | 268 | 0.9 | 3.5 | 0.00 | 0.00 | 0.00 | 53 | 1006.0 |
| 20260503071608 | 93 | 203 | 0.9 | 1.7 | 0.00 | 0.00 | 0.00 | 55 | 1006.1 |
| 20260503071105 | 92 | 235 | 1.7 | 1.7 | 0.00 | 0.00 | 0.00 | 55 | 1006.2 |
| 20260503070601 | 91 | 258 | 0.0 | 0.9 | 0.00 | 0.00 | 0.00 | 60 | 1006.3 |